Location: George Washington National Forest Helicopter Landing Site
(38.6463°N, 79.0851°W)
Time: 11:19:38
(UTC-04:00)

Vanguard 3 - Visible Passes

Search period start: 23 August 2019 00:00
Search period end: 02 September 2019 00:00
Orbit: 508 x 3263 km, 33.3° (Epoch: 23 August)

Date Brightness Start Highest point End Pass type
(mag) Time Alt. Az. Time Alt. Az. Time Alt. Az.
23 Aug 7.8 21:59:47 10° WSW 22:02:41 24° SSW 22:02:41 24° SSW visible
24 Aug 7.4 20:45:01 10° W 20:49:57 39° SSW 20:52:53 15° SE visible
25 Aug 7.9 21:43:47 10° WSW 21:47:21 22° SSW 21:47:38 22° SSW visible
26 Aug 7.7 20:28:37 10° W 20:34:04 38° SSW 20:37:50 10° SE visible
27 Aug 8.2 21:27:42 10° WSW 21:31:23 20° SSW 21:32:37 18° S visible
29 Aug 8.5 21:11:32 10° WSW 21:15:21 19° SSW 21:17:40 13° S visible
31 Aug 8.9 20:55:17 10° WSW 20:59:14 18° SW 21:02:19 10° S visible
